Location: Csohesd
(46.2500°N, 22.6167°E)
Time: 04:51:32
(UTC+00:00)

NOSS 2-3 (E) - Pass Details

Date: 21 October 2021
Orbit: 540 x 1670 km, 63.4° (Epoch: 28 November)

Event Time Altitude Azimuth Distance (km) Brightness Sun altitude
Rises 17:47:17 0° 227° (SW) 2,693 7.4 -23.9°
Reaches altitude 10° 17:49:22 10° 231° (SW) 1,833 6.5 -24.3°
Maximum altitude 17:53:20 63° 313° (NW) 680 3.8 -25.0°
Enters shadow 17:53:57 55° 354° (N) 741 3.9 -25.1°
